Pineville, WV

9:05 AM EDT on April 25, 2017 (GMT -0400)
Pineville

Weather History for KI16 - October, 2012

Change the Weather History Date:

Monday, October 8, 2012

  Actual Average (KBKW) Record (KBKW)
Temperature  
Mean Temperature 45 °F -  
Max Temperature 49 °F 63 °F 86 °F (2007)
Min Temperature 41 °F 43 °F 20 °F (1953)
Degree Days  
Heating Degree Days 20    
Moisture  
Dew Point 45 °F    
Average Humidity 98    
Maximum Humidity 100    
Minimum Humidity 93    
Precipitation  
Precipitation 0.00 in - - ()
Sea Level Pressure  
Sea Level Pressure 30.23 in    
Wind  
Wind Speed - (North)    
Max Wind Speed -    
Max Gust Speed -    
Visibility 8 miles    
Events Fog , Rain    
Averages and records for this station are not official NWS values.
T = Trace of Precipitation, MM = Missing Value Source: NWS Daily Summary

Daily Weather History Graph

Daily Weather History Graph

Search for Another Location

Airport or City:

Trip Planner

Search our weather history database for the weather conditions in past years. The results will help you decide how hot, cold, wet, or windy it might be!

Date:

Astronomy

Oct. 08, 2012 Rise Set
Actual Time 7:28 AM EDT 6:58 PM EDT
Civil Twilight 7:02 AM EDT 7:24 PM EDT
Nautical Twilight 6:31 AM EDT 7:54 PM EDT
Astronomical Twilight 6:01 AM EDT 8:25 PM EDT
Moon 12:14 AM EDT (10/8) 2:39 PM EDT (10/8)
Length of Visible Light 12h 22m
Length of Day
11h 29m
Waning Gibbous, 46% of the Moon is Illuminated
Oct 8
Waning Gibbous
Oct 15
New
Oct 21
First Quarter
Oct 29
Full
Nov 6
Last Quarter

Hourly Weather History & Observations

Time (EDT) Temp. Dew Point Humidity Pressure Visibility Wind Dir Wind Speed Gust Speed Precip Events Conditions
12:15 AM 42.4 °F 42.4 °F 100% 30.23 in 0.5 mi North - - N/A Fog Fog
12:35 AM 42.1 °F 42.1 °F 100% 30.23 in 1.0 mi North - - N/A   Overcast
12:55 AM 41.9 °F 41.9 °F 100% 30.23 in 2.0 mi North - - N/A   Overcast
1:15 AM 42.1 °F 42.1 °F 100% 30.23 in 10.0 mi North - - N/A   Overcast
1:35 AM 42.4 °F 42.4 °F 100% 30.21 in 7.0 mi North - - N/A   Overcast
1:55 AM 42.3 °F 42.3 °F 100% 30.21 in 10.0 mi North - - N/A   Overcast
2:15 AM 42.3 °F 42.3 °F 100% 30.22 in 10.0 mi North - - N/A   Mostly Cloudy
2:35 AM 42.4 °F 42.4 °F 100% 30.22 in 10.0 mi North - - N/A   Scattered Clouds
2:55 AM 42.4 °F 42.4 °F 100% 30.24 in 10.0 mi North - - N/A   Mostly Cloudy
3:15 AM 42.8 °F 42.8 °F 100% 30.24 in 10.0 mi North - - N/A   Mostly Cloudy
3:35 AM 42.8 °F 42.8 °F 100% 30.24 in 10.0 mi North - - N/A   Scattered Clouds
3:55 AM 42.4 °F 42.4 °F 100% 30.23 in 10.0 mi North - - N/A   Mostly Cloudy
4:15 AM 43.0 °F 43.0 °F 100% 30.22 in 10.0 mi North - - N/A   Mostly Cloudy
4:35 AM 43.3 °F 43.2 °F 99% 30.24 in 10.0 mi North - - N/A   Overcast
4:55 AM 43.3 °F 43.2 °F 99% 30.23 in 10.0 mi North - - N/A   Overcast
5:15 AM 43.3 °F 43.2 °F 99% 30.24 in 10.0 mi North - - N/A   Mostly Cloudy
5:35 AM 43.3 °F 43.2 °F 99% 30.25 in 10.0 mi North - - N/A   Scattered Clouds
5:55 AM 43.3 °F 43.2 °F 99% 30.23 in 10.0 mi North - - N/A   Scattered Clouds
6:15 AM 43.3 °F 43.2 °F 99% 30.23 in 10.0 mi North - - N/A   Mostly Cloudy
6:35 AM 43.3 °F 43.0 °F 99% 30.23 in 10.0 mi North - - N/A   Overcast
6:55 AM 43.3 °F 42.8 °F 98% 30.24 in 10.0 mi North - - N/A   Overcast
7:15 AM 43.3 °F 43.0 °F 99% 30.25 in 10.0 mi North - - N/A   Overcast
7:35 AM 43.3 °F 43.0 °F 99% 30.26 in 10.0 mi North - - N/A   Overcast
7:55 AM 43.9 °F 43.7 °F 99% 30.24 in 10.0 mi North - - N/A   Overcast
8:15 AM 43.9 °F 43.2 °F 97% 30.24 in 7.0 mi North - - N/A Rain Light Rain
8:35 AM 43.9 °F 43.0 °F 97% 30.25 in 5.0 mi North - - N/A Rain Light Rain
8:55 AM 44.1 °F 43.5 °F 98% 30.25 in 4.0 mi North - - N/A Rain Light Rain
9:15 AM 44.2 °F 43.7 °F 98% 30.25 in 1.2 mi North - - N/A Rain Rain
9:35 AM 43.9 °F 43.5 °F 99% 30.25 in 2.5 mi North - - N/A Rain Light Rain
9:55 AM 44.2 °F 43.9 °F 99% 30.26 in 7.0 mi North - - N/A Rain Light Rain
10:15 AM 45.0 °F 44.4 °F 98% 30.25 in 10.0 mi North - - N/A   Overcast
10:55 AM 45.0 °F 44.2 °F 97% 30.25 in 7.0 mi North - - N/A Rain Rain
11:15 AM 45.5 °F 44.8 °F 97% 30.27 in 5.0 mi North - - N/A Rain Light Rain
11:35 AM 45.7 °F 45.5 °F 99% 30.27 in 7.0 mi North - - N/A Rain Rain
11:55 AM 45.5 °F 45.1 °F 99% 30.30 in 1.5 mi North - - N/A Rain Rain
12:15 PM 45.9 °F 45.7 °F 99% 30.28 in 1.5 mi North - - N/A Rain Rain
12:35 PM 45.7 °F 45.5 °F 99% 30.26 in 2.0 mi North - - N/A Rain Light Rain
12:55 PM 46.2 °F 45.5 °F 97% 30.27 in 10.0 mi North - - N/A Rain Light Rain
1:15 PM 46.6 °F 45.1 °F 95% 30.26 in 10.0 mi North - - N/A Rain Light Rain
1:35 PM 46.4 °F 44.8 °F 94% 30.25 in 10.0 mi North - - N/A Rain Light Rain
1:55 PM 46.4 °F 44.8 °F 94% 30.25 in 7.0 mi North - - N/A Rain Light Rain
2:15 PM 46.4 °F 45.1 °F 95% 30.24 in 4.0 mi North - - N/A Rain Light Rain
2:35 PM 46.9 °F 45.5 °F 95% 30.24 in 7.0 mi North - - N/A Rain Rain
2:55 PM 47.3 °F 45.7 °F 94% 30.24 in 10.0 mi North - - N/A   Overcast
3:15 PM 47.3 °F 45.9 °F 95% 30.23 in 10.0 mi North - - N/A Rain Light Rain
3:35 PM 47.8 °F 46.0 °F 93% 30.23 in 10.0 mi North - - N/A   Light Drizzle
4:15 PM 48.2 °F 46.8 °F 95% 30.21 in 10.0 mi North - - N/A   Overcast
4:35 PM 48.7 °F 46.8 °F 93% 30.21 in 10.0 mi North - - N/A Rain Light Rain
4:55 PM 49.3 °F 47.7 °F 94% 30.20 in 10.0 mi North - - N/A   Overcast
5:15 PM 49.3 °F 47.7 °F 94% 30.20 in 10.0 mi North - - N/A   Overcast
5:35 PM 49.1 °F 47.8 °F 95% 30.20 in 10.0 mi North - - N/A   Overcast
5:55 PM 49.1 °F 47.5 °F 94% 30.20 in 10.0 mi North - - N/A   Overcast
6:15 PM 48.7 °F 47.1 °F 94% 30.20 in 10.0 mi North - - N/A   Overcast
6:35 PM 48.6 °F 47.5 °F 96% 30.20 in 10.0 mi North - - N/A   Overcast
6:55 PM 48.0 °F 47.5 °F 98% 30.20 in 10.0 mi North - - N/A   Overcast
7:15 PM 48.0 °F 47.7 °F 99% 30.20 in 10.0 mi North - - N/A   Overcast
7:35 PM 47.7 °F 47.5 °F 99% 30.20 in 7.0 mi North - - N/A   Overcast
7:55 PM 47.7 °F 47.5 °F 99% 30.20 in 10.0 mi North - - N/A   Overcast
8:15 PM 47.8 °F 47.3 °F 98% 30.20 in 10.0 mi North - - N/A   Overcast
8:35 PM 47.3 °F 46.8 °F 98% 30.20 in 10.0 mi North - - N/A   Overcast
9:15 PM 46.9 °F 46.8 °F 99% 30.21 in 7.0 mi North - - N/A   Overcast
9:55 PM 46.6 °F 46.6 °F 100% 30.22 in 7.0 mi North - - N/A   Overcast
10:15 PM 46.8 °F 46.8 °F 100% 30.22 in 7.0 mi North - - N/A   Overcast
10:35 PM 46.8 °F 46.8 °F 100% 30.22 in 7.0 mi North - - N/A   Overcast
10:55 PM 46.8 °F 46.8 °F 100% 30.23 in 7.0 mi North - - N/A   Overcast
11:35 PM 47.1 °F 46.9 °F 99% 30.22 in 10.0 mi North - - N/A   Overcast
11:55 PM 46.8 °F 46.6 °F 99% 30.22 in 10.0 mi North - - N/A   Overcast